Flag for Brazil Weather past 2 weeks in Florianópolis, Santa Catarina, Brazil

Now
75 °F

Scattered clouds.


Feels Like: 78 °F
Forecast: 54 / 74 °F
Wind: 7 mph from Northeast

Location: Florianopolis Aeroporto

Current Time: Oct 22, 2014 at 2:01:38 PM

Latest Report: Oct 22, 2014 at 1:00 PM


Visibility: N/A

Pressure: 30.21 "Hg

Humidity: 54%

Dew point: 57 °F

Location of FlorianópolisLocation

Historic Weather in Florianópolis — Graph

°F

Florianópolis temperature yesterday

Maximum temperature yesterday: 73 °F (at 3:00 PM)
Minimum temperature yesterday: 61 °F (at 6:00 AM)
Average temperature yesterday: 67 °F

Past Weeks' High & Low Weather Summary

 TemperatureHumidityPressure
High84 °F (Oct 10, 2:00 PM)100% (Oct 13, 10:00 PM)30.24 "Hg (Oct 13, 10:00 PM)
Low32 °F (Oct 13, 11:00 PM)29% (Oct 20, 11:00 AM)29.71 "Hg (Oct 19, 5:00 AM)
Average71 °F76%29.99 "Hg
* Reported Oct 7 11:00 AM — Oct 22 12:00 Noon, Florianópolis, Weather by CustomWeather, © 2014

Note: Actual official high and low records may vary slightly from our data, if they occured in-between our weather recording intervals... More about our weather records

Advertising

Florianópolis weather history for previous 24 hours

 ConditionsComfort  
Time TempWeatherWind HumidityBarometerVisibility
12:00 PM
Oct 22
72 °FScattered clouds.6 mph61%30.24 "HgN/A
11:00 AM72 °FScattered clouds.8 mph61%30.24 "HgN/A
10:00 AM70 °FScattered clouds.2 mph64%30.24 "HgN/A
9:00 AM68 °FScattered clouds.3 mph73%30.24 "HgN/A
8:00 AM64 °FScattered clouds.6 mph83%30.21 "HgN/A
7:00 AM64 °FScattered clouds.5 mph83%30.18 "HgN/A
6:00 AM64 °FPassing clouds.6 mph83%30.15 "HgN/A
5:00 AM64 °FPassing clouds.5 mph83%30.15 "HgN/A
4:00 AM64 °FPassing clouds.No wind83%30.15 "HgN/A
3:00 AM64 °FPassing clouds.No wind88%30.18 "HgN/A
2:00 AM66 °FPassing clouds.No wind83%30.18 "HgN/A
1:00 AM64 °FPassing clouds.2 mph83%30.21 "HgN/A
12:00 AM66 °FPassing clouds.No wind73%30.21 "HgN/A
11:00 PM
Oct 21
66 °FPassing clouds.No wind78%30.21 "HgN/A
10:00 PM68 °FPassing clouds.No wind69%30.21 "HgN/A
9:00 PM68 °FPassing clouds.3 mph64%30.18 "HgN/A
8:00 PM68 °FPassing clouds.5 mph60%30.18 "HgN/A
7:00 PM68 °FPartly sunny.7 mph60%30.18 "HgN/A
6:00 PM70 °FPartly sunny.10 mph57%30.15 "HgN/A
5:00 PM70 °FPartly sunny.9 mph60%30.15 "HgN/A
4:00 PM72 °FPartly sunny.13 mph57%30.15 "HgN/A
3:00 PM73 °FPartly sunny.12 mph57%30.18 "HgN/A
2:00 PM72 °FScattered clouds.10 mph61%30.18 "HgN/A
Weather by CustomWeather, © 2014

See weather overviewHow to use our weather pages